Time,TemperatureF,DewpointF,PressureIn,WindDirection,WindDirectionDegrees,WindSpeedMPH,WindSpeedGustMPH,Humidity,HourlyPrecipIn,Conditions,Clouds,dailyrainin,SoftwareType,DateUTC
2013-06-22 00:01:00,62.0,56.1,30.23,WSW,248,0.0,0.0,81,0.00,,---,0.00,VWS V14.01,2013-06-22 04:01:00,
2013-06-22 00:02:00,62.0,56.1,30.23,WSW,248,0.0,1.0,81,0.00,,---,0.00,VWS V14.01,2013-06-22 04:02:00,
2013-06-22 00:04:00,62.0,56.5,30.23,WSW,248,0.0,1.0,82,0.00,,---,0.00,VWS V14.01,2013-06-22 04:04:00,
2013-06-22 00:09:00,61.0,55.5,30.23,WSW,248,0.0,1.0,82,0.00,,---,0.00,VWS V14.01,2013-06-22 04:09:00,
2013-06-22 00:14:00,61.0,55.8,30.23,WSW,248,0.0,1.0,83,0.00,,---,0.00,VWS V14.01,2013-06-22 04:14:00,
2013-06-22 00:19:00,61.0,56.1,30.23,WSW,248,1.0,1.0,84,0.00,,---,0.00,VWS V14.01,2013-06-22 04:19:00,
2013-06-22 00:24:00,61.0,56.1,30.23,WSW,248,1.0,1.0,84,0.00,,---,0.00,VWS V14.01,2013-06-22 04:24:00,
2013-06-22 00:30:00,61.0,56.1,30.24,WNW,292,1.0,1.0,84,0.00,,---,0.00,VWS V14.01,2013-06-22 04:30:00,
2013-06-22 00:35:00,61.0,56.1,30.24,WNW,292,0.0,1.0,84,0.00,,---,0.00,VWS V14.01,2013-06-22 04:35:00,
2013-06-22 00:40:00,61.0,56.1,30.24,WNW,292,0.0,1.0,84,0.00,,---,0.00,VWS V14.01,2013-06-22 04:40:00,
2013-06-22 00:45:00,60.0,55.5,30.23,WNW,292,0.0,1.0,85,0.00,,---,0.00,VWS V14.01,2013-06-22 04:45:00,
2013-06-22 00:50:00,60.0,55.5,30.24,WNW,292,1.0,1.0,85,0.00,,---,0.00,VWS V14.01,2013-06-22 04:50:00,
2013-06-22 00:55:00,60.0,55.8,30.24,WNW,292,0.0,1.0,86,0.00,,---,0.00,VWS V14.01,2013-06-22 04:55:00,
2013-06-22 01:00:00,60.0,55.8,30.24,WNW,292,0.0,1.0,86,0.00,,---,0.00,VWS V14.01,2013-06-22 05:00:00,
2013-06-22 01:05:00,60.0,55.8,30.24,WNW,292,0.0,1.0,86,0.00,,---,0.00,VWS V14.01,2013-06-22 05:05:00,
2013-06-22 01:10:00,60.0,56.1,30.24,WNW,292,0.0,1.0,87,0.00,,---,0.00,VWS V14.01,2013-06-22 05:10:00,
2013-06-22 01:15:00,60.0,56.1,30.24,WNW,292,1.0,1.0,87,0.00,,---,0.00,VWS V14.01,2013-06-22 05:15:00,
2013-06-22 01:20:00,60.0,56.1,30.24,WSW,248,1.0,2.0,87,0.00,,---,0.00,VWS V14.01,2013-06-22 05:20:00,
2013-06-22 01:25:00,60.0,56.1,30.23,WSW,248,1.0,2.0,87,0.00,,---,0.00,VWS V14.01,2013-06-22 05:25:00,
2013-06-22 01:30:00,60.0,56.4,30.24,SE,135,1.0,2.0,88,0.00,,---,0.00,VWS V14.01,2013-06-22 05:30:00,
2013-06-22 01:35:00,59.0,55.8,30.23,SSE,158,0.0,2.0,89,0.00,,---,0.00,VWS V14.01,2013-06-22 05:35:00,
2013-06-22 01:41:00,59.0,55.8,30.24,South,180,1.0,1.0,89,0.00,,---,0.00,VWS V14.01,2013-06-22 05:41:00,
2013-06-22 01:46:00,59.0,55.8,30.24,South,180,1.0,1.0,89,0.00,,---,0.00,VWS V14.01,2013-06-22 05:46:00,
2013-06-22 01:51:00,59.0,55.8,30.23,South,180,0.0,1.0,89,0.00,,---,0.00,VWS V14.01,2013-06-22 05:51:00,
2013-06-22 01:56:00,59.0,55.8,30.24,South,180,0.0,1.0,89,0.00,,---,0.00,VWS V14.01,2013-06-22 05:56:00,
2013-06-22 02:01:00,59.0,55.8,30.23,South,180,0.0,0.0,89,0.00,,---,0.00,VWS V14.01,2013-06-22 06:01:00,
2013-06-22 02:06:00,59.0,55.8,30.23,South,180,0.0,1.0,89,0.00,,---,0.00,VWS V14.01,2013-06-22 06:06:00,
2013-06-22 02:11:00,59.0,56.1,30.23,South,180,0.0,1.0,90,0.00,,---,0.00,VWS V14.01,2013-06-22 06:11:00,
2013-06-22 02:16:00,58.0,55.1,30.23,South,180,0.0,1.0,90,0.00,,---,0.00,VWS V14.01,2013-06-22 06:16:00,
2013-06-22 02:21:00,58.0,55.1,30.23,South,180,1.0,1.0,90,0.00,,---,0.00,VWS V14.01,2013-06-22 06:21:00,
2013-06-22 02:26:00,58.0,55.4,30.23,SE,135,1.0,3.0,91,0.00,,---,0.00,VWS V14.01,2013-06-22 06:26:00,
2013-06-22 02:31:00,58.0,55.4,30.23,SE,135,2.0,3.0,91,0.00,,---,0.00,VWS V14.01,2013-06-22 06:31:00,
2013-06-22 02:36:00,58.0,55.4,30.22,SE,135,1.0,4.0,91,0.00,,---,0.00,VWS V14.01,2013-06-22 06:36:00,
2013-06-22 02:41:00,58.0,55.4,30.22,SE,135,0.0,1.0,91,0.00,,---,0.00,VWS V14.01,2013-06-22 06:41:00,
2013-06-22 02:46:00,58.0,55.7,30.22,SE,135,0.0,1.0,92,0.00,,---,0.00,VWS V14.01,2013-06-22 06:46:00,
2013-06-22 02:51:00,58.0,55.7,30.22,SW,225,0.0,1.0,92,0.00,,---,0.00,VWS V14.01,2013-06-22 06:51:00,
2013-06-22 02:57:00,58.0,55.7,30.21,SE,135,1.0,2.0,92,0.00,,---,0.00,VWS V14.01,2013-06-22 06:57:00,
2013-06-22 03:02:00,58.0,55.7,30.21,SE,135,1.0,1.0,92,0.00,,---,0.00,VWS V14.01,2013-06-22 07:02:00,
2013-06-22 03:07:00,58.0,55.7,30.21,ESE,112,1.0,2.0,92,0.00,,---,0.00,VWS V14.01,2013-06-22 07:07:00,
2013-06-22 03:12:00,58.0,55.7,30.21,ENE,68,1.0,2.0,92,0.00,,---,0.00,VWS V14.01,2013-06-22 07:12:00,
2013-06-22 03:17:00,58.0,55.7,30.21,ENE,68,1.0,2.0,92,0.00,,---,0.00,VWS V14.01,2013-06-22 07:17:00,
2013-06-22 03:22:00,58.0,55.7,30.21,East,90,1.0,3.0,92,0.00,,---,0.00,VWS V14.01,2013-06-22 07:22:00,
2013-06-22 03:27:00,58.0,56.0,30.20,East,90,1.0,3.0,93,0.00,,---,0.00,VWS V14.01,2013-06-22 07:27:00,
2013-06-22 03:32:00,58.0,56.0,30.20,East,90,2.0,3.0,93,0.00,,---,0.00,VWS V14.01,2013-06-22 07:32:00,
2013-06-22 03:37:00,58.0,56.0,30.20,East,90,3.0,3.0,93,0.00,,---,0.00,VWS V14.01,2013-06-22 07:37:00,
2013-06-22 03:42:00,58.0,56.0,30.20,ESE,112,1.0,2.0,93,0.00,,---,0.00,VWS V14.01,2013-06-22 07:42:00,
2013-06-22 03:47:00,58.0,56.0,30.20,SSE,158,0.0,2.0,93,0.00,,---,0.00,VWS V14.01,2013-06-22 07:47:00,
2013-06-22 03:52:00,58.0,56.0,30.20,SSE,158,0.0,2.0,93,0.00,,---,0.00,VWS V14.01,2013-06-22 07:52:00,
2013-06-22 03:57:00,58.0,56.0,30.20,SSE,158,0.0,2.0,93,0.00,,---,0.00,VWS V14.01,2013-06-22 07:57:00,
2013-06-22 04:02:00,57.0,55.0,30.20,East,90,1.0,3.0,93,0.00,,---,0.00,VWS V14.01,2013-06-22 08:02:00,
2013-06-22 04:07:00,57.0,55.0,30.21,SE,135,0.0,3.0,93,0.00,,---,0.00,VWS V14.01,2013-06-22 08:07:00,
2013-06-22 04:13:00,57.0,55.0,30.20,SE,135,1.0,3.0,93,0.00,,---,0.00,VWS V14.01,2013-06-22 08:13:00,
2013-06-22 04:18:00,57.0,55.0,30.21,SE,135,0.0,3.0,93,0.00,,---,0.00,VWS V14.01,2013-06-22 08:18:00,
2013-06-22 04:23:00,57.0,55.3,30.20,ENE,68,1.0,1.0,94,0.00,,---,0.00,VWS V14.01,2013-06-22 08:23:00,
2013-06-22 04:28:00,57.0,55.3,30.20,ENE,68,1.0,2.0,94,0.00,,---,0.00,VWS V14.01,2013-06-22 08:28:00,
2013-06-22 04:33:00,58.0,56.3,30.20,ESE,112,1.0,2.0,94,0.00,,---,0.00,VWS V14.01,2013-06-22 08:33:00,
2013-06-22 04:38:00,58.0,56.3,30.19,SE,135,2.0,3.0,94,0.00,,---,0.00,VWS V14.01,2013-06-22 08:38:00,
2013-06-22 04:43:00,58.0,56.3,30.19,SE,135,3.0,4.0,94,0.00,,---,0.00,VWS V14.01,2013-06-22 08:43:00,
2013-06-22 04:48:00,58.0,56.3,30.19,SE,135,2.0,4.0,94,0.00,,---,0.00,VWS V14.01,2013-06-22 08:48:00,
2013-06-22 04:53:00,58.0,56.0,30.19,ENE,68,1.0,4.0,93,0.00,,---,0.00,VWS V14.01,2013-06-22 08:53:00,
2013-06-22 04:58:00,58.0,56.0,30.18,NNE,22,1.0,4.0,93,0.00,,---,0.00,VWS V14.01,2013-06-22 08:58:00,
2013-06-22 05:03:00,58.0,56.3,30.19,North,0,2.0,4.0,94,0.00,,---,0.00,VWS V14.01,2013-06-22 09:03:00,
2013-06-22 05:08:00,58.0,56.3,30.19,ESE,112,1.0,4.0,94,0.00,,---,0.00,VWS V14.01,2013-06-22 09:08:00,
2013-06-22 05:14:00,58.0,56.3,30.18,East,90,0.0,4.0,94,0.00,,---,0.00,VWS V14.01,2013-06-22 09:14:00,
2013-06-22 05:19:00,58.0,56.3,30.19,ENE,68,1.0,4.0,94,0.00,,---,0.00,VWS V14.01,2013-06-22 09:19:00,
2013-06-22 05:24:00,58.0,56.3,30.19,ENE,68,2.0,3.0,94,0.00,,---,0.00,VWS V14.01,2013-06-22 09:24:00,
2013-06-22 05:29:00,58.0,56.3,30.19,ENE,68,1.0,3.0,94,0.00,,---,0.00,VWS V14.01,2013-06-22 09:29:00,
2013-06-22 05:34:00,58.0,56.3,30.19,East,90,2.0,4.0,94,0.00,,---,0.00,VWS V14.01,2013-06-22 09:34:00,
2013-06-22 05:39:00,58.0,56.3,30.19,ENE,68,1.0,4.0,94,0.00,,---,0.00,VWS V14.01,2013-06-22 09:39:00,
2013-06-22 05:44:00,58.0,56.3,30.19,SE,135,2.0,3.0,94,0.00,,---,0.00,VWS V14.01,2013-06-22 09:44:00,
2013-06-22 05:49:00,58.0,56.3,30.19,SE,135,2.0,3.0,94,0.00,,---,0.00,VWS V14.01,2013-06-22 09:49:00,
2013-06-22 05:54:00,58.0,56.3,30.18,SE,135,1.0,3.0,94,0.00,,---,0.00,VWS V14.01,2013-06-22 09:54:00,
2013-06-22 05:59:00,58.0,56.3,30.19,SE,135,0.0,3.0,94,0.00,,---,0.00,VWS V14.01,2013-06-22 09:59:00,
2013-06-22 06:04:00,58.0,56.3,30.19,NE,45,1.0,2.0,94,0.00,,---,0.00,VWS V14.01,2013-06-22 10:04:00,
2013-06-22 06:09:00,58.0,56.6,30.19,ENE,68,1.0,2.0,95,0.00,,---,0.00,VWS V14.01,2013-06-22 10:09:00,
2013-06-22 06:15:00,58.0,56.6,30.19,SE,135,3.0,3.0,95,0.00,,---,0.00,VWS V14.01,2013-06-22 10:15:00,
2013-06-22 06:20:00,58.0,56.6,30.19,SSE,158,3.0,3.0,95,0.00,,---,0.00,VWS V14.01,2013-06-22 10:20:00,
2013-06-22 06:25:00,59.0,57.6,30.19,SE,135,1.0,3.0,95,0.00,,---,0.00,VWS V14.01,2013-06-22 10:25:00,
2013-06-22 06:30:00,59.0,57.6,30.19,SE,135,0.0,3.0,95,0.00,,---,0.00,VWS V14.01,2013-06-22 10:30:00,
2013-06-22 06:35:00,59.0,57.6,30.19,ESE,112,1.0,3.0,95,0.00,,---,0.00,VWS V14.01,2013-06-22 10:35:00,
2013-06-22 06:40:00,59.0,57.6,30.19,ESE,112,1.0,1.0,95,0.00,,---,0.00,VWS V14.01,2013-06-22 10:40:00,
2013-06-22 06:45:00,59.0,57.6,30.19,ESE,112,0.0,1.0,95,0.00,,---,0.00,VWS V14.01,2013-06-22 10:45:00,
2013-06-22 06:50:00,59.0,57.6,30.19,SE,135,1.0,2.0,95,0.00,,---,0.00,VWS V14.01,2013-06-22 10:50:00,
2013-06-22 06:55:00,59.0,57.6,30.19,SE,135,0.0,2.0,95,0.00,,---,0.00,VWS V14.01,2013-06-22 10:55:00,
2013-06-22 07:01:00,60.0,58.6,30.19,SE,135,1.0,1.0,95,0.00,,---,0.00,VWS V14.01,2013-06-22 11:01:00,
2013-06-22 07:06:00,60.0,58.6,30.19,North,0,1.0,2.0,95,0.00,,---,0.00,VWS V14.01,2013-06-22 11:06:00,
2013-06-22 07:11:00,60.0,58.6,30.20,NE,45,1.0,3.0,95,0.00,,---,0.00,VWS V14.01,2013-06-22 11:11:00,
2013-06-22 07:16:00,61.0,59.6,30.20,East,90,1.0,3.0,95,0.00,,---,0.00,VWS V14.01,2013-06-22 11:16:00,
2013-06-22 07:21:00,61.0,59.6,30.20,ENE,68,1.0,3.0,95,0.00,,---,0.00,VWS V14.01,2013-06-22 11:21:00,
2013-06-22 07:26:00,62.0,60.3,30.20,ENE,68,1.0,3.0,94,0.00,,---,0.00,VWS V14.01,2013-06-22 11:26:00,
2013-06-22 07:31:00,62.0,60.3,30.20,East,90,1.0,3.0,94,0.00,,---,0.00,VWS V14.01,2013-06-22 11:31:00,
2013-06-22 07:36:00,62.0,60.3,30.20,SSE,158,0.0,3.0,94,0.00,,---,0.00,VWS V14.01,2013-06-22 11:36:00,
2013-06-22 07:41:00,63.0,61.2,30.21,South,180,1.0,2.0,94,0.00,,---,0.00,VWS V14.01,2013-06-22 11:41:00,
2013-06-22 07:47:00,64.0,61.6,30.21,NW,315,1.0,2.0,92,0.00,,---,0.00,VWS V14.01,2013-06-22 11:47:00,
2013-06-22 07:52:00,64.0,61.6,30.21,North,0,0.0,2.0,92,0.00,,---,0.00,VWS V14.01,2013-06-22 11:52:00,
2013-06-22 07:57:00,64.0,61.3,30.21,SW,225,1.0,4.0,91,0.00,,---,0.00,VWS V14.01,2013-06-22 11:57:00,
2013-06-22 08:02:00,65.0,62.0,30.21,South,180,3.0,3.0,90,0.00,,---,0.00,VWS V14.01,2013-06-22 12:02:00,
2013-06-22 08:07:00,66.0,62.3,30.20,SW,225,1.0,3.0,88,0.00,,---,0.00,VWS V14.01,2013-06-22 12:07:00,
2013-06-22 08:12:00,67.0,63.0,30.20,SE,135,2.0,3.0,87,0.00,,---,0.00,VWS V14.01,2013-06-22 12:12:00,
2013-06-22 08:17:00,67.0,62.3,30.20,SSW,202,3.0,5.0,85,0.00,,---,0.00,VWS V14.01,2013-06-22 12:17:00,
2013-06-22 08:22:00,68.0,62.7,30.20,SE,135,3.0,6.0,83,0.00,,---,0.00,VWS V14.01,2013-06-22 12:22:00,
2013-06-22 08:27:00,68.0,62.0,30.20,SE,135,2.0,6.0,81,0.00,,---,0.00,VWS V14.01,2013-06-22 12:27:00,
2013-06-22 08:32:00,69.0,62.6,30.20,SSW,202,3.0,7.0,80,0.00,,---,0.00,VWS V14.01,2013-06-22 12:32:00,
2013-06-22 08:38:00,69.0,62.2,30.20,SSE,158,2.0,7.0,79,0.00,,---,0.00,VWS V14.01,2013-06-22 12:38:00,
2013-06-22 08:43:00,69.0,61.9,30.21,SSW,202,3.0,5.0,78,0.00,,---,0.00,VWS V14.01,2013-06-22 12:43:00,
2013-06-22 08:48:00,70.0,62.5,30.21,SW,225,2.0,7.0,77,0.00,,---,0.00,VWS V14.01,2013-06-22 12:48:00,
2013-06-22 08:53:00,70.0,62.1,30.21,SW,225,3.0,7.0,76,0.00,,---,0.00,VWS V14.01,2013-06-22 12:53:00,
2013-06-22 08:58:00,71.0,63.1,30.21,South,180,3.0,7.0,76,0.00,,---,0.00,VWS V14.01,2013-06-22 12:58:00,
2013-06-22 09:03:00,71.0,61.9,30.22,SW,225,4.0,5.0,73,0.00,,---,0.00,VWS V14.01,2013-06-22 13:03:00,
2013-06-22 09:08:00,71.0,61.9,30.21,SSW,202,3.0,6.0,73,0.00,,---,0.00,VWS V14.01,2013-06-22 13:08:00,
2013-06-22 09:13:00,72.0,62.5,30.22,SW,225,1.0,6.0,72,0.00,,---,0.00,VWS V14.01,2013-06-22 13:13:00,
2013-06-22 09:18:00,72.0,62.1,30.21,SSE,158,3.0,6.0,71,0.00,,---,0.00,VWS V14.01,2013-06-22 13:18:00,
2013-06-22 09:24:00,73.0,62.7,30.21,SSW,202,3.0,6.0,70,0.00,,---,0.00,VWS V14.01,2013-06-22 13:24:00,
2013-06-22 09:29:00,73.0,62.2,30.21,South,180,3.0,7.0,69,0.00,,---,0.00,VWS V14.01,2013-06-22 13:29:00,
2013-06-22 09:34:00,74.0,63.2,30.21,SSE,158,5.0,7.0,69,0.00,,---,0.00,VWS V14.01,2013-06-22 13:34:00,
2013-06-22 09:39:00,74.0,61.9,30.21,SW,225,3.0,7.0,66,0.00,,---,0.00,VWS V14.01,2013-06-22 13:39:00,
2013-06-22 09:44:00,75.0,62.9,30.21,SSW,202,3.0,6.0,66,0.00,,---,0.00,VWS V14.01,2013-06-22 13:44:00,
2013-06-22 09:49:00,75.0,62.0,30.21,South,180,3.0,6.0,64,0.00,,---,0.00,VWS V14.01,2013-06-22 13:49:00,
2013-06-22 09:54:00,76.0,62.5,30.21,South,180,6.0,8.0,63,0.00,,---,0.00,VWS V14.01,2013-06-22 13:54:00,
2013-06-22 09:59:00,76.0,62.0,30.21,SW,225,3.0,8.0,62,0.00,,---,0.00,VWS V14.01,2013-06-22 13:59:00,
2013-06-22 10:04:00,77.0,63.0,30.21,WSW,248,4.0,8.0,62,0.00,,---,0.00,VWS V14.01,2013-06-22 14:04:00,
2013-06-22 10:09:00,77.0,62.1,30.21,WSW,248,8.0,10.0,60,0.00,,---,0.00,VWS V14.01,2013-06-22 14:09:00,
2013-06-22 10:15:00,77.0,62.1,30.21,SW,225,6.0,10.0,60,0.00,,---,0.00,VWS V14.01,2013-06-22 14:15:00,
2013-06-22 10:20:00,77.0,62.1,30.21,South,180,10.0,11.0,60,0.00,,---,0.00,VWS V14.01,2013-06-22 14:20:00,
2013-06-22 10:25:00,78.0,63.0,30.21,SW,225,6.0,11.0,60,0.00,,---,0.00,VWS V14.01,2013-06-22 14:25:00,
2013-06-22 10:30:00,78.0,62.0,30.21,WSW,248,10.0,14.0,58,0.00,,---,0.00,VWS V14.01,2013-06-22 14:30:00,
2013-06-22 10:35:00,78.0,62.0,30.21,SW,225,8.0,16.0,58,0.00,,---,0.00,VWS V14.01,2013-06-22 14:35:00,
2013-06-22 10:40:00,78.0,62.0,30.22,WNW,292,10.0,17.0,58,0.00,,---,0.00,VWS V14.01,2013-06-22 14:40:00,
2013-06-22 10:45:00,78.0,62.0,30.22,SW,225,8.0,17.0,58,0.00,,---,0.00,VWS V14.01,2013-06-22 14:45:00,
2013-06-22 10:50:00,79.0,63.5,30.22,West,270,12.0,17.0,59,0.00,,---,0.00,VWS V14.01,2013-06-22 14:50:00,
2013-06-22 10:55:00,79.0,63.0,30.22,SW,225,9.0,17.0,58,0.00,,---,0.00,VWS V14.01,2013-06-22 14:55:00,
2013-06-22 11:00:00,79.0,62.5,30.21,SSW,202,6.0,8.0,57,0.00,,---,0.00,VWS V14.01,2013-06-22 15:00:00,
2013-06-22 11:06:00,80.0,64.4,30.21,SW,225,11.0,15.0,59,0.00,,---,0.00,VWS V14.01,2013-06-22 15:06:00,
2013-06-22 11:11:00,80.0,63.4,30.21,SW,225,7.0,15.0,57,0.00,,---,0.00,VWS V14.01,2013-06-22 15:11:00,
2013-06-22 11:16:00,80.0,63.9,30.21,SW,225,10.0,19.0,58,0.00,,---,0.00,VWS V14.01,2013-06-22 15:16:00,
2013-06-22 11:21:00,80.0,63.9,30.21,WSW,248,11.0,13.0,58,0.00,,---,0.00,VWS V14.01,2013-06-22 15:21:00,
2013-06-22 11:26:00,80.0,62.9,30.21,SW,225,8.0,16.0,56,0.00,,---,0.00,VWS V14.01,2013-06-22 15:26:00,
2013-06-22 11:31:00,80.0,63.4,30.20,West,270,8.0,17.0,57,0.00,,---,0.00,VWS V14.01,2013-06-22 15:31:00,
2013-06-22 11:36:00,81.0,64.3,30.21,WSW,248,14.0,17.0,57,0.00,,---,0.00,VWS V14.01,2013-06-22 15:36:00,
2013-06-22 11:41:00,80.0,62.4,30.21,SW,225,13.0,19.0,55,0.00,,---,0.00,VWS V14.01,2013-06-22 15:41:00,
2013-06-22 11:46:00,80.0,62.4,30.20,West,270,10.0,21.0,55,0.00,,---,0.00,VWS V14.01,2013-06-22 15:46:00,
2013-06-22 11:52:00,80.0,62.4,30.20,SW,225,10.0,26.0,55,0.00,,---,0.00,VWS V14.01,2013-06-22 15:52:00,
2013-06-22 11:57:00,81.0,63.3,30.20,SW,225,9.0,26.0,55,0.00,,---,0.00,VWS V14.01,2013-06-22 15:57:00,
2013-06-22 12:02:00,80.0,62.9,30.20,SW,225,16.0,20.0,56,0.00,,---,0.00,VWS V14.01,2013-06-22 16:02:00,
2013-06-22 12:07:00,80.0,62.9,30.21,SW,225,13.0,20.0,56,0.00,,---,0.00,VWS V14.01,2013-06-22 16:07:00,
2013-06-22 12:12:00,81.0,63.8,30.20,SW,225,10.0,20.0,56,0.00,,---,0.00,VWS V14.01,2013-06-22 16:12:00,
2013-06-22 12:17:00,81.0,63.3,30.20,WSW,248,12.0,20.0,55,0.00,,---,0.00,VWS V14.01,2013-06-22 16:17:00,
2013-06-22 12:22:00,81.0,63.3,30.20,SW,225,11.0,14.0,55,0.00,,---,0.00,VWS V14.01,2013-06-22 16:22:00,
2013-06-22 12:27:00,81.0,62.8,30.20,SW,225,12.0,19.0,54,0.00,,---,0.00,VWS V14.01,2013-06-22 16:27:00,
2013-06-22 12:32:00,81.0,63.3,30.20,West,270,16.0,19.0,55,0.00,,---,0.00,VWS V14.01,2013-06-22 16:32:00,
2013-06-22 12:37:00,81.0,63.3,30.19,SSW,202,10.0,19.0,55,0.00,,---,0.00,VWS V14.01,2013-06-22 16:37:00,
2013-06-22 12:43:00,81.0,61.7,30.20,WSW,248,11.0,16.0,52,0.00,,---,0.00,VWS V14.01,2013-06-22 16:43:00,
2013-06-22 12:48:00,81.0,61.7,30.20,West,270,12.0,16.0,52,0.00,,---,0.00,VWS V14.01,2013-06-22 16:48:00,
2013-06-22 12:53:00,82.0,62.7,30.19,WSW,248,13.0,16.0,52,0.00,,---,0.00,VWS V14.01,2013-06-22 16:53:00,
2013-06-22 12:58:00,82.0,63.2,30.20,WSW,248,11.0,16.0,53,0.00,,---,0.00,VWS V14.01,2013-06-22 16:58:00,
2013-06-22 13:03:00,82.0,62.7,30.19,SSW,202,8.0,16.0,52,0.00,,---,0.00,VWS V14.01,2013-06-22 17:03:00,
2013-06-22 13:08:00,82.0,62.7,30.19,WSW,248,10.0,16.0,52,0.00,,---,0.00,VWS V14.01,2013-06-22 17:08:00,
2013-06-22 13:13:00,82.0,62.1,30.19,South,180,11.0,19.0,51,0.00,,---,0.00,VWS V14.01,2013-06-22 17:13:00,
2013-06-22 13:18:00,82.0,60.4,30.19,WSW,248,12.0,19.0,48,0.00,,---,0.00,VWS V14.01,2013-06-22 17:18:00,
2013-06-22 13:23:00,82.0,61.5,30.19,West,270,11.0,20.0,50,0.00,,---,0.00,VWS V14.01,2013-06-22 17:23:00,
2013-06-22 13:29:00,83.0,64.1,30.19,West,270,5.0,20.0,53,0.00,,---,0.00,VWS V14.01,2013-06-22 17:29:00,
2013-06-22 13:34:00,83.0,62.5,30.19,WSW,248,10.0,20.0,50,0.00,,---,0.00,VWS V14.01,2013-06-22 17:34:00,
2013-06-22 13:39:00,83.0,61.9,30.18,SW,225,8.0,20.0,49,0.00,,---,0.00,VWS V14.01,2013-06-22 17:39:00,
2013-06-22 13:44:00,83.0,61.3,30.18,WSW,248,7.0,12.0,48,0.00,,---,0.00,VWS V14.01,2013-06-22 17:44:00,
2013-06-22 13:49:00,83.0,60.1,30.19,SW,225,6.0,16.0,46,0.00,,---,0.00,VWS V14.01,2013-06-22 17:49:00,
2013-06-22 13:54:00,83.0,61.3,30.19,South,180,8.0,16.0,48,0.00,,---,0.00,VWS V14.01,2013-06-22 17:54:00,
2013-06-22 13:59:00,84.0,61.0,30.19,SW,225,8.0,16.0,46,0.00,,---,0.00,VWS V14.01,2013-06-22 17:59:00,
2013-06-22 14:04:00,84.0,62.2,30.19,SW,225,11.0,16.0,48,0.00,,---,0.00,VWS V14.01,2013-06-22 18:04:00,
2013-06-22 14:10:00,84.0,61.6,30.19,WSW,248,11.0,18.0,47,0.00,,---,0.00,VWS V14.01,2013-06-22 18:10:00,
2013-06-22 14:15:00,84.0,61.6,30.18,WSW,248,8.0,18.0,47,0.00,,---,0.00,VWS V14.01,2013-06-22 18:15:00,
2013-06-22 14:20:00,84.0,61.0,30.18,West,270,10.0,12.0,46,0.00,,---,0.00,VWS V14.01,2013-06-22 18:20:00,
2013-06-22 14:25:00,84.0,61.0,30.18,WSW,248,10.0,16.0,46,0.00,,---,0.00,VWS V14.01,2013-06-22 18:25:00,
2013-06-22 14:30:00,85.0,61.9,30.18,SSW,202,10.0,17.0,46,0.00,,---,0.00,VWS V14.01,2013-06-22 18:30:00,
2013-06-22 14:35:00,85.0,61.9,30.18,SW,225,11.0,18.0,46,0.00,,---,0.00,VWS V14.01,2013-06-22 18:35:00,
2013-06-22 14:40:00,84.0,61.0,30.18,SW,225,10.0,17.0,46,0.00,,---,0.00,VWS V14.01,2013-06-22 18:40:00,
2013-06-22 14:45:00,85.0,61.3,30.18,West,270,14.0,17.0,45,0.00,,---,0.00,VWS V14.01,2013-06-22 18:45:00,
2013-06-22 14:51:00,85.0,61.9,30.18,WSW,248,17.0,17.0,46,0.00,,---,0.00,VWS V14.01,2013-06-22 18:51:00,
2013-06-22 14:56:00,84.0,60.4,30.18,SW,225,9.0,17.0,45,0.00,,---,0.00,VWS V14.01,2013-06-22 18:56:00,
2013-06-22 15:01:00,84.0,61.0,30.17,SW,225,11.0,15.0,46,0.00,,---,0.00,VWS V14.01,2013-06-22 19:01:00,
2013-06-22 15:06:00,83.0,60.1,30.17,SW,225,14.0,17.0,46,0.00,,---,0.00,VWS V14.01,2013-06-22 19:06:00,
2013-06-22 15:11:00,84.0,61.6,30.17,SW,225,7.0,17.0,47,0.00,,---,0.00,VWS V14.01,2013-06-22 19:11:00,
2013-06-22 15:16:00,84.0,61.6,30.17,SW,225,4.0,17.0,47,0.00,,---,0.00,VWS V14.01,2013-06-22 19:16:00,
2013-06-22 15:21:00,84.0,62.2,30.17,WSW,248,14.0,14.0,48,0.00,,---,0.00,VWS V14.01,2013-06-22 19:21:00,
2013-06-22 15:26:00,84.0,61.6,30.16,SW,225,7.0,17.0,47,0.00,,---,0.00,VWS V14.01,2013-06-22 19:26:00,
2013-06-22 15:31:00,84.0,62.8,30.16,WSW,248,10.0,17.0,49,0.00,,---,0.00,VWS V14.01,2013-06-22 19:31:00,
2013-06-22 15:36:00,84.0,62.2,30.15,South,180,5.0,17.0,48,0.00,,---,0.00,VWS V14.01,2013-06-22 19:36:00,
2013-06-22 15:42:00,84.0,62.2,30.15,SW,225,11.0,16.0,48,0.00,,---,0.00,VWS V14.01,2013-06-22 19:42:00,
2013-06-22 15:47:00,84.0,61.0,30.15,West,270,13.0,16.0,46,0.00,,---,0.00,VWS V14.01,2013-06-22 19:47:00,
2013-06-22 15:52:00,84.0,61.6,30.15,SW,225,6.0,16.0,47,0.00,,---,0.00,VWS V14.01,2013-06-22 19:52:00,
2013-06-22 15:57:00,84.0,62.2,30.15,SW,225,10.0,16.0,48,0.00,,---,0.00,VWS V14.01,2013-06-22 19:57:00,
2013-06-22 16:02:00,84.0,61.6,30.15,WSW,248,12.0,15.0,47,0.00,,---,0.00,VWS V14.01,2013-06-22 20:02:00,
2013-06-22 16:07:00,84.0,62.2,30.15,West,270,9.0,15.0,48,0.00,,---,0.00,VWS V14.01,2013-06-22 20:07:00,
2013-06-22 16:12:00,84.0,62.2,30.15,South,180,5.0,15.0,48,0.00,,---,0.00,VWS V14.01,2013-06-22 20:12:00,
2013-06-22 16:17:00,84.0,61.6,30.14,SW,225,5.0,15.0,47,0.00,,---,0.00,VWS V14.01,2013-06-22 20:17:00,
2013-06-22 16:23:00,85.0,62.5,30.14,South,180,7.0,11.0,47,0.00,,---,0.00,VWS V14.01,2013-06-22 20:23:00,
2013-06-22 16:28:00,85.0,62.5,30.14,SSW,202,4.0,13.0,47,0.00,,---,0.00,VWS V14.01,2013-06-22 20:28:00,
2013-06-22 16:33:00,84.0,61.0,30.13,SSW,202,11.0,13.0,46,0.00,,---,0.00,VWS V14.01,2013-06-22 20:33:00,
2013-06-22 16:38:00,84.0,61.6,30.13,SSE,158,8.0,17.0,47,0.00,,---,0.00,VWS V14.01,2013-06-22 20:38:00,
2013-06-22 16:43:00,84.0,62.2,30.13,SW,225,4.0,12.0,48,0.00,,---,0.00,VWS V14.01,2013-06-22 20:43:00,
2013-06-22 16:48:00,84.0,62.2,30.13,WSW,248,9.0,12.0,48,0.00,,---,0.00,VWS V14.01,2013-06-22 20:48:00,
2013-06-22 16:53:00,84.0,61.6,30.12,WSW,248,10.0,15.0,47,0.00,,---,0.00,VWS V14.01,2013-06-22 20:53:00,
2013-06-22 16:58:00,84.0,62.8,30.12,SW,225,8.0,15.0,49,0.00,,---,0.00,VWS V14.01,2013-06-22 20:58:00,
2013-06-22 17:03:00,84.0,62.8,30.12,WSW,248,7.0,11.0,49,0.00,,---,0.00,VWS V14.01,2013-06-22 21:03:00,
2013-06-22 17:09:00,84.0,62.8,30.12,SW,225,5.0,11.0,49,0.00,,---,0.00,VWS V14.01,2013-06-22 21:09:00,
2013-06-22 17:14:00,84.0,62.8,30.12,WSW,248,6.0,11.0,49,0.00,,---,0.00,VWS V14.01,2013-06-22 21:14:00,
2013-06-22 17:19:00,84.0,63.9,30.12,SW,225,10.0,11.0,51,0.00,,---,0.00,VWS V14.01,2013-06-22 21:19:00,
2013-06-22 17:24:00,83.0,62.5,30.11,WSW,248,6.0,9.0,50,0.00,,---,0.00,VWS V14.01,2013-06-22 21:24:00,
2013-06-22 17:29:00,84.0,63.4,30.12,West,270,4.0,9.0,50,0.00,,---,0.00,VWS V14.01,2013-06-22 21:29:00,
2013-06-22 17:34:00,84.0,63.4,30.11,SW,225,8.0,11.0,50,0.00,,---,0.00,VWS V14.01,2013-06-22 21:34:00,
2013-06-22 17:39:00,83.0,63.0,30.11,SW,225,3.0,12.0,51,0.00,,---,0.00,VWS V14.01,2013-06-22 21:39:00,
2013-06-22 17:44:00,83.0,63.0,30.11,WSW,248,6.0,10.0,51,0.00,,---,0.00,VWS V14.01,2013-06-22 21:44:00,
2013-06-22 17:49:00,83.0,63.0,30.11,SSW,202,4.0,10.0,51,0.00,,---,0.00,VWS V14.01,2013-06-22 21:49:00,
2013-06-22 17:55:00,83.0,63.6,30.11,SW,225,5.0,10.0,52,0.00,,---,0.00,VWS V14.01,2013-06-22 21:55:00,
2013-06-22 18:00:00,82.0,62.1,30.10,SW,225,6.0,10.0,51,0.00,,---,0.00,VWS V14.01,2013-06-22 22:00:00,
2013-06-22 18:05:00,82.0,62.7,30.10,SW,225,4.0,8.0,52,0.00,,---,0.00,VWS V14.01,2013-06-22 22:05:00,
2013-06-22 18:10:00,82.0,62.7,30.10,South,180,5.0,8.0,52,0.00,,---,0.00,VWS V14.01,2013-06-22 22:10:00,
2013-06-22 18:15:00,82.0,62.7,30.11,SSW,202,4.0,8.0,52,0.00,,---,0.00,VWS V14.01,2013-06-22 22:15:00,
2013-06-22 18:20:00,82.0,62.7,30.11,West,270,4.0,6.0,52,0.00,,---,0.00,VWS V14.01,2013-06-22 22:20:00,
2013-06-22 18:25:00,83.0,63.6,30.10,SW,225,3.0,6.0,52,0.00,,---,0.00,VWS V14.01,2013-06-22 22:25:00,
2013-06-22 18:30:00,83.0,63.6,30.10,SSW,202,5.0,6.0,52,0.00,,---,0.00,VWS V14.01,2013-06-22 22:30:00,
2013-06-22 18:35:00,83.0,63.6,30.10,SSW,202,3.0,6.0,52,0.00,,---,0.00,VWS V14.01,2013-06-22 22:35:00,
2013-06-22 18:40:00,83.0,64.1,30.11,South,180,3.0,4.0,53,0.00,,---,0.00,VWS V14.01,2013-06-22 22:40:00,
2013-06-22 18:46:00,83.0,64.1,30.11,WSW,248,5.0,7.0,53,0.00,,---,0.00,VWS V14.01,2013-06-22 22:46:00,
2013-06-22 18:51:00,82.0,63.2,30.11,South,180,5.0,7.0,53,0.00,,---,0.00,VWS V14.01,2013-06-22 22:51:00,
2013-06-22 18:56:00,82.0,63.7,30.11,South,180,6.0,7.0,54,0.00,,---,0.00,VWS V14.01,2013-06-22 22:56:00,
2013-06-22 19:01:00,82.0,64.3,30.10,SW,225,3.0,5.0,55,0.00,,---,0.00,VWS V14.01,2013-06-22 23:01:00,
2013-06-22 19:06:00,82.0,64.3,30.11,SSW,202,1.0,5.0,55,0.00,,---,0.00,VWS V14.01,2013-06-22 23:06:00,
2013-06-22 19:11:00,82.0,64.3,30.11,SW,225,3.0,5.0,55,0.00,,---,0.00,VWS V14.01,2013-06-22 23:11:00,
2013-06-22 19:16:00,82.0,64.8,30.10,SSW,202,3.0,5.0,56,0.00,,---,0.00,VWS V14.01,2013-06-22 23:16:00,
2013-06-22 19:21:00,82.0,64.8,30.11,SSW,202,5.0,6.0,56,0.00,,---,0.00,VWS V14.01,2013-06-22 23:21:00,
2013-06-22 19:26:00,82.0,64.8,30.11,SSW,202,2.0,6.0,56,0.00,,---,0.00,VWS V14.01,2013-06-22 23:26:00,
2013-06-22 19:32:00,81.0,64.3,30.11,SW,225,4.0,7.0,57,0.00,,---,0.00,VWS V14.01,2013-06-22 23:32:00,
2013-06-22 19:37:00,81.0,64.3,30.11,SW,225,3.0,7.0,57,0.00,,---,0.00,VWS V14.01,2013-06-22 23:37:00,
2013-06-22 19:42:00,81.0,64.3,30.11,South,180,3.0,5.0,57,0.00,,---,0.00,VWS V14.01,2013-06-22 23:42:00,
2013-06-22 19:47:00,81.0,64.8,30.11,SSW,202,3.0,6.0,58,0.00,,---,0.00,VWS V14.01,2013-06-22 23:47:00,
2013-06-22 19:52:00,81.0,64.8,30.11,SSW,202,5.0,6.0,58,0.00,,---,0.00,VWS V14.01,2013-06-22 23:52:00,
2013-06-22 19:57:00,81.0,64.8,30.11,SSW,202,3.0,6.0,58,0.00,,---,0.00,VWS V14.01,2013-06-22 23:57:00,
2013-06-22 20:02:00,81.0,65.3,30.11,SSW,202,2.0,4.0,59,0.00,,---,0.00,VWS V14.01,2013-06-23 00:02:00,
2013-06-22 20:07:00,80.0,64.4,30.11,SW,225,4.0,5.0,59,0.00,,---,0.00,VWS V14.01,2013-06-23 00:07:00,
2013-06-22 20:12:00,80.0,64.9,30.11,South,180,3.0,5.0,60,0.00,,---,0.00,VWS V14.01,2013-06-23 00:12:00,
2013-06-22 20:17:00,80.0,64.4,30.11,South,180,4.0,7.0,59,0.00,,---,0.00,VWS V14.01,2013-06-23 00:17:00,
2013-06-22 20:23:00,80.0,64.4,30.10,South,180,3.0,5.0,59,0.00,,---,0.00,VWS V14.01,2013-06-23 00:23:00,
2013-06-22 20:28:00,80.0,64.9,30.10,SSW,202,2.0,5.0,60,0.00,,---,0.00,VWS V14.01,2013-06-23 00:28:00,
2013-06-22 20:33:00,79.0,63.9,30.11,South,180,5.0,8.0,60,0.00,,---,0.00,VWS V14.01,2013-06-23 00:33:00,
2013-06-22 20:38:00,79.0,63.9,30.11,SSW,202,3.0,8.0,60,0.00,,---,0.00,VWS V14.01,2013-06-23 00:38:00,
2013-06-22 20:43:00,79.0,64.4,30.11,South,180,3.0,5.0,61,0.00,,---,0.00,VWS V14.01,2013-06-23 00:43:00,
2013-06-22 20:48:00,79.0,64.4,30.12,SSW,202,5.0,6.0,61,0.00,,---,0.00,VWS V14.01,2013-06-23 00:48:00,
2013-06-22 20:53:00,79.0,64.4,30.12,SSW,202,3.0,8.0,61,0.00,,---,0.00,VWS V14.01,2013-06-23 00:53:00,
2013-06-22 20:58:00,78.0,63.9,30.12,SSE,158,3.0,8.0,62,0.00,,---,0.00,VWS V14.01,2013-06-23 00:58:00,
2013-06-22 21:03:00,78.0,63.9,30.12,South,180,5.0,5.0,62,0.00,,---,0.00,VWS V14.01,2013-06-23 01:03:00,
2013-06-22 21:09:00,78.0,63.9,30.11,SSW,202,5.0,6.0,62,0.00,,---,0.00,VWS V14.01,2013-06-23 01:09:00,
2013-06-22 21:14:00,78.0,64.4,30.11,South,180,3.0,8.0,63,0.00,,---,0.00,VWS V14.01,2013-06-23 01:14:00,
2013-06-22 21:19:00,78.0,64.4,30.12,SSW,202,3.0,8.0,63,0.00,,---,0.00,VWS V14.01,2013-06-23 01:19:00,
2013-06-22 21:24:00,77.0,63.5,30.12,South,180,3.0,6.0,63,0.00,,---,0.00,VWS V14.01,2013-06-23 01:24:00,
2013-06-22 21:29:00,77.0,63.9,30.12,SSW,202,5.0,6.0,64,0.00,,---,0.00,VWS V14.01,2013-06-23 01:29:00,
2013-06-22 21:34:00,77.0,63.9,30.12,SSW,202,4.0,6.0,64,0.00,,---,0.00,VWS V14.01,2013-06-23 01:34:00,
2013-06-22 21:39:00,77.0,64.3,30.12,SSW,202,3.0,6.0,65,0.00,,---,0.00,VWS V14.01,2013-06-23 01:39:00,
2013-06-22 21:44:00,77.0,64.3,30.13,South,180,3.0,6.0,65,0.00,,---,0.00,VWS V14.01,2013-06-23 01:44:00,
2013-06-22 21:49:00,76.0,63.8,30.13,SW,225,2.0,6.0,66,0.00,,---,0.00,VWS V14.01,2013-06-23 01:49:00,
2013-06-22 21:54:00,76.0,64.3,30.13,SW,225,3.0,6.0,67,0.00,,---,0.00,VWS V14.01,2013-06-23 01:54:00,
2013-06-22 21:59:00,76.0,64.3,30.13,South,180,3.0,6.0,67,0.00,,---,0.00,VWS V14.01,2013-06-23 01:59:00,
2013-06-22 22:04:00,76.0,64.3,30.13,South,180,4.0,7.0,67,0.00,,---,0.00,VWS V14.01,2013-06-23 02:04:00,
2013-06-22 22:09:00,76.0,64.3,30.14,SW,225,3.0,7.0,67,0.00,,---,0.00,VWS V14.01,2013-06-23 02:09:00,
2013-06-22 22:15:00,76.0,64.7,30.14,SW,225,3.0,7.0,68,0.00,,---,0.00,VWS V14.01,2013-06-23 02:15:00,
2013-06-22 22:20:00,75.0,63.7,30.15,SW,225,3.0,7.0,68,0.00,,---,0.00,VWS V14.01,2013-06-23 02:20:00,
2013-06-22 22:25:00,75.0,64.2,30.15,SW,225,3.0,5.0,69,0.00,,---,0.00,VWS V14.01,2013-06-23 02:25:00,
2013-06-22 22:30:00,75.0,64.2,30.15,SW,225,3.0,5.0,69,0.00,,---,0.00,VWS V14.01,2013-06-23 02:30:00,
2013-06-22 22:35:00,75.0,64.6,30.15,West,270,3.0,6.0,70,0.00,,---,0.00,VWS V14.01,2013-06-23 02:35:00,
2013-06-22 22:40:00,75.0,64.6,30.15,SW,225,2.0,3.0,70,0.00,,---,0.00,VWS V14.01,2013-06-23 02:40:00,
2013-06-22 22:45:00,75.0,64.6,30.15,SW,225,4.0,6.0,70,0.00,,---,0.00,VWS V14.01,2013-06-23 02:45:00,
2013-06-22 22:50:00,75.0,64.6,30.15,SSW,202,3.0,6.0,70,0.00,,---,0.00,VWS V14.01,2013-06-23 02:50:00,
2013-06-22 22:55:00,75.0,64.2,30.15,SSW,202,5.0,8.0,69,0.00,,---,0.00,VWS V14.01,2013-06-23 02:55:00,
2013-06-22 23:00:00,75.0,64.2,30.15,SSW,202,4.0,6.0,69,0.00,,---,0.00,VWS V14.01,2013-06-23 03:00:00,
2013-06-22 23:05:00,75.0,64.2,30.15,SW,225,5.0,7.0,69,0.00,,---,0.00,VWS V14.01,2013-06-23 03:05:00,
2013-06-22 23:10:00,75.0,64.2,30.16,SW,225,5.0,8.0,69,0.00,,---,0.00,VWS V14.01,2013-06-23 03:10:00,
2013-06-22 23:15:00,75.0,64.2,30.16,WSW,248,4.0,8.0,69,0.00,,---,0.00,VWS V14.01,2013-06-23 03:15:00,
2013-06-22 23:20:00,75.0,64.2,30.15,SW,225,6.0,6.0,69,0.00,,---,0.00,VWS V14.01,2013-06-23 03:20:00,
2013-06-22 23:26:00,75.0,64.6,30.15,SW,225,3.0,7.0,70,0.00,,---,0.00,VWS V14.01,2013-06-23 03:26:00,
2013-06-22 23:31:00,75.0,64.2,30.15,SSW,202,6.0,8.0,69,0.00,,---,0.00,VWS V14.01,2013-06-23 03:31:00,
2013-06-22 23:36:00,75.0,64.2,30.15,SW,225,3.0,8.0,69,0.00,,---,0.00,VWS V14.01,2013-06-23 03:36:00,
2013-06-22 23:41:00,75.0,64.2,30.15,South,180,3.0,6.0,69,0.00,,---,0.00,VWS V14.01,2013-06-23 03:41:00,
2013-06-22 23:46:00,75.0,64.2,30.16,SW,225,5.0,6.0,69,0.00,,---,0.00,VWS V14.01,2013-06-23 03:46:00,
2013-06-22 23:51:00,74.0,63.2,30.15,South,180,5.0,6.0,69,0.00,,---,0.00,VWS V14.01,2013-06-23 03:51:00,
2013-06-22 23:56:00,74.0,63.2,30.15,SW,225,3.0,6.0,69,0.00,,---,0.00,VWS V14.01,2013-06-23 03:56:00,